Lexington Weather

Lexington, Massachusetts, USA

73°F
8/7/2020 11:19am 
  • Lexington Conditions: Clear
  • Temperature: 72.5°F / 22.5°CWarmer 2.5°F than last hour.
  • Dew Point: 63.7°FIncreased 1.3°Fsince last hour.
  • Relative Humidity: 74%Decreased 3.0% since last hour.
  • Wind: Calm, 10-min avg: Calm, gust: 2 mph
  • Barometer: 30.14 in Steady
  • Visibility: 10 miles
  • Rain Today: 0.00 in
  •   

Regional Weather Roundup
for Boston / Norton, MA

        
000
ASUS41 KBOX 030204
RWRBOX

REGIONAL WEATHER ROUNDUP
NATIONAL WEATHER SERVICE BOSTON/NORTON MA
1000 PM EDT SUN AUG 02 2020

NOTE:  "FAIR" INDICATES FEW OR NO CLOUDS BELOW 12,000 FEET WITH NO 
SIGNIFICANT WEATHER AND/OR OBSTRUCTIONS TO VISIBILITY.

MAZALL-030300-
EASTERN MASSACHUSETTS
  
CITY           SKY/WX    TMP DP  RH WIND       PRES   REMARKS
BOSTON         CLOUDY    77  72  84 S13       29.90F                  
BEVERLY        CLOUDY    73  71  93 SE6       29.90F                  
LAWRENCE       PTCLDY    75  74  96 VRB3      29.91F                  
BEDFORD        CLOUDY    77  75  93 S7        29.88F                  
BLUE HILL      NOT AVBL                                               
NORWOOD        CLOUDY    80  73  79 S10       29.89F                  
MARSHFIELD     CLOUDY    81  77  89 S10G18    29.91F                  
PLYMOUTH       CLOUDY    78  75  90 S6        29.93F                  
TAUNTON        MOCLDY    79  74  84 VRB7      29.91F                  
NEW BEDFORD    CLOUDY    79  76  90 S10       29.93S                  
$$

MAZALL-030300-
CAPE COD AND THE ISLANDS
  
CITY           SKY/WX    TMP DP  RH WIND       PRES   REMARKS
FALMOUTH       CLOUDY    75  75 100 S17G25    29.95F                  
HYANNIS        CLOUDY    78  75  90 S12G20    29.94F                  
CHATHAM        CLOUDY    73  70  90 S8        29.98F                  
PROVINCETOWN   CLOUDY    76  73  91 S9G18     29.95F                  
NANTUCKET      PTCLDY    73  71  93 S17       29.97F                  
MARTHAS VNYRD  CLOUDY    75  74  96 S13       29.95F                  
$$
 
MAZALL-030300-
CENTRAL AND WESTERN MASSACHUSETTS
  
CITY           SKY/WX    TMP DP  RH WIND       PRES   REMARKS
WORCESTER      CLOUDY    75  73  93 S12       29.93S                  
FITCHBURG      CLOUDY    76  73  91 SE7       29.90F                  
ORANGE         CLOUDY    77  74  90 S6        29.90R                  
SPRINGFIELD    CLOUDY    78  74  87 S3        29.86S                  
WESTFIELD      CLOUDY    78  76  93 S5        29.87R                  
NORTH ADAMS    PTCLDY    80  72  76 CALM      29.85R                  
PITTSFIELD     MOCLDY    78  73  84 S10G17    29.88R                  
$$
 
RIZALL-030300-
RHODE ISLAND
  
CITY           SKY/WX    TMP DP  RH WIND       PRES   REMARKS
PROVIDENCE     CLOUDY    79  76  90 S12       29.92F                  
NEWPORT        CLOUDY    78  76  93 S12       29.93S                  
BLOCK ISLAND   CLOUDY    77  75  93 S13       29.93S                  
SMITHFIELD     CLOUDY    76  76 100 VRB6      29.93S                  
WESTERLY       CLOUDY    76  73  91 S9        29.92S FOG              
$$
 
CTZALL-030300-
CONNECTICUT
  
CITY           SKY/WX    TMP DP  RH WIND       PRES   REMARKS
BRADLEY INTL   CLOUDY    79  75  87 S8        29.86R                  
HARTFORD       CLOUDY    81  75  82 S6        29.86S                  
BRIDGEPORT     CLEAR     80  74  81 S14       29.87R                  
DANBURY        PTCLDY    79  74  84 S8        29.89R                  
GROTON         CLOUDY    75  74  96 SE9       29.90S                  
NEW HAVEN      PTCLDY    80  77  90 MISG      29.89R                  
CHESTER        NOT AVBL                                               
MERIDEN        PTCLDY    78  74  87 S8        29.88R                  
WILLIMANTIC    CLOUDY    79  74  84 S5        29.90R                  
OXFORD         CLEAR     76  75  97 S8        29.91R                  
$$

MEZ002-015-021-024-NHZ003-005-008-011-012-014-VTZ005-008-030300-
NORTHERN NEW ENGLAND
  
CITY           SKY/WX    TMP DP  RH WIND       PRES   REMARKS
PORTLAND ME    MOCLDY    74  68  81 S16G24    29.92F                  
BANGOR ME      CLOUDY    71  65  81 S13       29.96S                  
CONCORD NH     CLOUDY    77  72  84 S13G20    29.88F                  
MANCHESTER NH  CLOUDY    79  74  84 S9        29.88F                  
NASHUA NH      CLOUDY    77  77 100 SE6       29.90S                  
PORTSMOUTH NH  MOCLDY    73  69  87 SE9       29.89                   
JAFFREY NH     CLOUDY    76  71  85 S10G17    29.92S                  
KEENE NH       CLOUDY    78  73  84 S9        29.87F                  
BURLINGTON VT  MOCLDY    80  68  66 VRB5      29.74R                  
MT. WASHINGTON LGT RAIN  57  57 100 S33G46      N/A  VSB 0            
$$

NYZ052-076-030300-
EASTERN NEW YORK
  
CITY           SKY/WX    TMP DP  RH WIND       PRES   REMARKS
ALBANY         MOCLDY    78  74  87 SE12      29.80R                  
NEW YORK CITY  MOCLDY    86  73  65 S13       29.87R HX  93           
$$
 
ANZALL-030300-
MARINE OBSERVATIONS
  
STATION/POSITION TIME  TEMP    WIND        PRES    VSBY  WAVE
                       AIR SEA DIR/SP/G                  HT/PER
                 (UTC) (F)     (DEG/KT/KT) (MB)    (MI)  (FT/S)
BOSTON BUOY      0150   70 67  140/ 12/ 12 1011.7F         3/ 4
BUZZARDS BAY     0100          160/ 16/ 18 1014.5R
NANTUCKET SOUND  0140      76  170/ 19/ 25 1013.5F
MASS BAY-STELLWA 0104   73     190/ 16/ 19 1011.3R  1 7/8  4/ 5
ISLE OF SHOALS   0100   72     160/ 25/ 28 1012.2S
S OF BLOCK IS    0126      73                N/A           4/ 5
$$

......................KEY.........................
  SKY/WX - SKY CONDITION/PRESENT WEATHER
  TMP    - TEMPERATURE IN FAHRENHEIT
  DWPT   - DEWPOINT IN FAHRENHEIT
  RH     - RELATIVE HUMIDITY IN PERCENT
  WIND   - DIRECTION AND SPEED IN MPH
  PRES   - MEAN SEA LEVEL PRESSURE IN INCHES OF HG
  WCI    - WIND CHILL INDEX
  VSB    - VISIBILITY IN MILES
  HX     - HEAT INDEX
  TC     - TEMPERATURE IN CELSIUS
  VRB    - VARIABLE WIND DIRECTION
  N/A    - NOT AVAILABLE
  
      

Other recent Regional Weather Roundups

Fri Aug 7, 10:04am

Fri Aug 7, 9:04am

Fri Aug 7, 8:04am

Fri Aug 7, 7:04am

Fri Aug 7, 6:04am

Fri Aug 7, 5:04am

Fri Aug 7, 4:04am

Fri Aug 7, 3:04am

Fri Aug 7, 2:04am

Fri Aug 7, 1:05am

Fri Aug 7, 12:04am

Thu Aug 6, 11:04pm

Thu Aug 6, 10:04pm

Thu Aug 6, 9:04pm

Thu Aug 6, 8:04pm

Thu Aug 6, 7:04pm

Thu Aug 6, 6:04pm

Thu Aug 6, 5:04pm

Thu Aug 6, 4:05pm

Thu Aug 6, 3:04pm

Thu Aug 6, 2:05pm

Thu Aug 6, 1:04pm

Thu Aug 6, 12:04pm

Thu Aug 6, 11:04am

Thu Aug 6, 10:04am

Thu Aug 6, 9:04am

Thu Aug 6, 8:04am

Thu Aug 6, 7:04am

Thu Aug 6, 6:04am

Thu Aug 6, 5:04am

Thu Aug 6, 4:04am

Thu Aug 6, 3:04am

Thu Aug 6, 2:05am

Thu Aug 6, 1:04am

Thu Aug 6, 12:04am

Wed Aug 5, 11:04pm

Wed Aug 5, 10:04pm

Wed Aug 5, 9:04pm

Wed Aug 5, 8:05pm

Wed Aug 5, 7:04pm

Wed Aug 5, 6:04pm

Wed Aug 5, 5:04pm

Wed Aug 5, 4:05pm

Wed Aug 5, 3:04pm

Wed Aug 5, 2:04pm

Wed Aug 5, 1:04pm

Wed Aug 5, 12:04pm

Wed Aug 5, 11:04am

Wed Aug 5, 10:04am

Wed Aug 5, 9:04am

Wed Aug 5, 8:04am

Wed Aug 5, 7:04am

Wed Aug 5, 6:04am

Wed Aug 5, 5:04am

Wed Aug 5, 4:04am

Wed Aug 5, 3:04am

Wed Aug 5, 2:05am

Wed Aug 5, 1:04am

Wed Aug 5, 12:05am

Tue Aug 4, 11:05pm

Tue Aug 4, 10:05pm

Tue Aug 4, 9:04pm

Tue Aug 4, 8:04pm

Tue Aug 4, 7:05pm

Tue Aug 4, 6:05pm

Tue Aug 4, 5:05pm

Tue Aug 4, 4:05pm

Tue Aug 4, 3:04pm

Tue Aug 4, 2:05pm

Tue Aug 4, 1:04pm

Tue Aug 4, 12:05pm

Tue Aug 4, 11:04am

Tue Aug 4, 10:04am

Tue Aug 4, 9:04am

Tue Aug 4, 8:04am

Tue Aug 4, 7:04am

Tue Aug 4, 6:04am

Tue Aug 4, 5:04am

Tue Aug 4, 4:04am

Tue Aug 4, 3:04am

Tue Aug 4, 2:04am

Tue Aug 4, 1:04am

Tue Aug 4, 12:04am

Mon Aug 3, 11:04pm

Mon Aug 3, 10:04pm

Mon Aug 3, 9:04pm

Mon Aug 3, 8:05pm

Mon Aug 3, 7:04pm

Mon Aug 3, 6:04pm

Mon Aug 3, 5:04pm

Mon Aug 3, 4:05pm

Mon Aug 3, 3:04pm

Mon Aug 3, 2:04pm

Mon Aug 3, 1:04pm

Mon Aug 3, 12:05pm

Mon Aug 3, 11:04am

Mon Aug 3, 10:04am

Mon Aug 3, 9:05am

Mon Aug 3, 8:04am

Mon Aug 3, 7:04am

Mon Aug 3, 6:04am

Mon Aug 3, 5:04am

Mon Aug 3, 4:04am

Mon Aug 3, 3:04am

Mon Aug 3, 2:04am

Mon Aug 3, 1:04am

Mon Aug 3, 12:05am

Sun Aug 2, 11:04pm

Sun Aug 2, 9:04pm

Sun Aug 2, 8:04pm

Sun Aug 2, 7:04pm

Sun Aug 2, 6:04pm

Sun Aug 2, 5:04pm

Sun Aug 2, 4:05pm

Sun Aug 2, 3:04pm

Sun Aug 2, 2:05pm

Sun Aug 2, 1:04pm

Sun Aug 2, 12:04pm

Sun Aug 2, 11:04am

Sun Aug 2, 10:04am

Sun Aug 2, 9:05am

Sun Aug 2, 8:05am

Sun Aug 2, 7:04am

Sun Aug 2, 6:04am

Sun Aug 2, 5:04am

Sun Aug 2, 4:05am

Sun Aug 2, 3:04am

Sun Aug 2, 2:04am

Sun Aug 2, 1:04am

Sun Aug 2, 12:05am

Sat Aug 1, 11:04pm

Sat Aug 1, 10:04pm

Sat Aug 1, 9:04pm

Sat Aug 1, 8:05pm

Sat Aug 1, 7:04pm

Sat Aug 1, 6:04pm

Sat Aug 1, 5:05pm

Sat Aug 1, 4:05pm

Sat Aug 1, 3:04pm

Sat Aug 1, 2:04pm

Sat Aug 1, 1:04pm

Sat Aug 1, 12:04pm

Sat Aug 1, 11:05am

Sat Aug 1, 10:05am

Sat Aug 1, 9:04am

Sat Aug 1, 8:04am

Sat Aug 1, 7:04am

Sat Aug 1, 6:04am

Sat Aug 1, 5:04am

Sat Aug 1, 4:05am

Sat Aug 1, 3:04am

Sat Aug 1, 2:04am

Sat Aug 1, 1:04am

Sat Aug 1, 12:05am

Fri Jul 31, 11:05pm

Fri Jul 31, 10:04pm

Fri Jul 31, 9:04pm

Fri Jul 31, 8:05pm

Fri Jul 31, 7:05pm

Fri Jul 31, 6:04pm

Fri Jul 31, 5:04pm

Fri Jul 31, 4:05pm

Fri Jul 31, 3:04pm

Fri Jul 31, 2:05pm

Fri Jul 31, 1:04pm

Fri Jul 31, 12:04pm

Fri Jul 31, 11:04am

Meta data:

ID: d83957c7-b7fb-414e-ab86-93a8c1eaa75a
Link: https://api.weather.gov/products/d83957c7-b7fb-414e-ab86-93a8c1eaa75a